COSMOS 249 DEB, 3606

Orbit data source: Space-Track

COSMOS 249 DEB, 3606 is space debris in LEO originally from a launch on Sun, 20 Oct 1968 UTC launched from the Tyuratam Missile And Space Complex (TTMTR). Debris objects in space refer to the collection of defunct objects orbiting the Earth. Examples of debris include non-operational satellites, rocket bodies, and fragments generated from explosions, collisions, or faulty payload assembly.

Loading next visibility...
Identifier
3606, 1968-091Y
Orbit
LEO
Country
Flag of CISCIS
Related business
Manufacturer
Unknown
Mission
Spacecraft
Bus & Motor
Unknown
Mass
Unknown
Launch date (UTC)
1968-10-20 (58 years ago)
Launch vehicle
Unknown
Launch site
Tyuratam Missile And Space Complex (TTMTR)
Object type
Payload
Rocket body
Debris
Shape & HBR
Unknown shape, 0.1 m
Radar Cross Section
Small (<0.1 m²)

Expand to show TLE details & history
Last TLE update: 1 day ago

TLE from 1 day ago
0 COSMOS 249 DEB
1 03606U 68091Y   26126.64752610  .00000918  00000-0  83165-3 0  9991
2 03606  62.2571 210.8657 0727687 274.7302  77.1029 13.06053757679242
Epoch: 2026-05-06T15:32Z
TLE epoch observation values (Epoch: 2026-05-06T15:32:26.255Z)
Latitude
0.00001°
Longitude
113.2513°
Altitude
1,155.537 km
Speed
7.316 km/s
True Right ascension
14h 03m 27s
True Declination
0° 00' 00"
Sunlit
Object was in full shadow at epoch
Visualization orbit readout
Latitude
Unknown
Longitude
Unknown
Altitude
Unknown
Speed
Unknown
Apparent Right ascension
Unknown
Apparent Declination
Unknown
Sunlit
N/A
Visualization observer readout
Local Sidereal Time
00:30:54
Azimuth
Unknown
Elevation
Unknown
Doppler factor
Unknown
Orbital elements
Apogee altitude
1,791.624 km
Perigee altitude
683.272 km
Semi-major axis
7,615.585 km
Eccentricity
0.07277
Inclination
62.2571°
RAAN
210.8657°
Arg. of periapsis
274.7302°
True anomaly
85.37066°
Mean anomaly
77.1029°
Eccentric anomaly
81.22342°
Mean motion
3.26579 °/min
Orbital period
110.23 mins
BSTAR
0.00083165
Loading maneuver chart data...
Computing Atmospheric mass density...

Documentation

Showing up to 5 results
|